User: anonymous   Login
Location: Bangkok
(13.7500°N, 100.5170°E)
Time: 15:19:21
(UTC+07:00)
Language:

ERBS - Orbit

View from above orbital plane
View from above orbital plane
View from above satellite
View from above satellite

Ground track
Ground track

The orbit data is extracted from the following two-line orbital elements,

1 15354U 84108B   16273.12953692  .00005713  00000-0  14252-3 0  9998
2 15354  57.0093 180.7946 0009972 359.1517   0.9519 15.41693475757915
Epoch (UTC): 29 September 2016 03:06:31
Eccentricity: 0.0009972
inclination: 57.0093°
perigee height: 434 km
apogee height: 448 km
right ascension of ascending node: 180.7946°
argument of perigee: 359.1517°
revolutions per day: 15.41693475
mean anomaly at epoch: 0.9519°
orbit number at epoch: 75791

The dashed part of the orbit path shows where the satellite is in the earth's shadow,  

DLR